Weather History for Martha's Vineyard, MA

Change the Weather History Date:

Sunday, February 24, 2013

  Actual Average Record
Temperature  
Mean Temperature 38 °F -  
Max Temperature 44 °F 42 °F 54 °F (1984)
Min Temperature 32 °F 26 °F 5 °F (1972)
Degree Days  
Heating Degree Days 27    
Moisture  
Dew Point 40 °F    
Average Humidity 100    
Maximum Humidity 100    
Minimum Humidity 96    
Precipitation  
Precipitation 1.37 in - - ()
Sea Level Pressure  
Sea Level Pressure 29.64 in    
Wind  
Wind Speed 17 mph (NNE)    
Max Wind Speed 23 mph    
Max Gust Speed 32 mph    
Visibility 4 miles    
Events Rain , Snow    
Averages and records for this station are not official NWS values.
T = Trace of Precipitation, MM = Missing Value Source: NWS Daily Summary

Daily Weather History Graph

Daily Weather History Graph

Search for Another Location

Airport:

Trip Planner

Search our weather history database for the weather conditions in past years. The results will help you decide how hot, cold, wet, or windy it might be!

Date:

Astronomy

Feb. 24, 2013 Rise Set
Actual Time 6:24 AM EST 5:27 PM EST
Civil Twilight 5:56 AM EST 5:55 PM EST
Nautical Twilight 5:24 AM EST 6:27 PM EST
Astronomical Twilight 4:52 AM EST 6:59 PM EST
Moon 4:35 PM EST (2/24) 5:20 AM EST (2/24)
Length of Visible Light 11h 59m
Length of Day
11h 03m
Waxing Gibbous, 99% of the Moon is Illuminated
Feb 24
Waxing Gibbous
Feb 25
Full
Mar 4
Last Quarter
Mar 11
New
Mar 19
First Quarter

Hourly Weather History & Observations

Time (EST) Temp. Windchill Dew Point Humidity Pressure Visibility Wind Dir Wind Speed Gust Speed Precip Events Conditions
12:53 AM 39.9 °F 31.4 °F 39.9 °F 100% 29.80 in 5.0 mi East 16.1 mph - 0.06 in Rain Rain
1:53 AM 39.9 °F 30.8 °F 39.9 °F 100% 29.75 in 6.0 mi ENE 18.4 mph 24.2 mph 0.07 in Rain Rain
2:53 AM 39.9 °F 31.1 °F 39.9 °F 100% 29.70 in 4.0 mi ENE 17.3 mph 25.3 mph 0.08 in Rain Light Rain
3:53 AM 39.9 °F 30.8 °F 39.9 °F 100% 29.67 in 4.0 mi ENE 18.4 mph 24.2 mph 0.08 in Rain Light Rain
4:53 AM 41.0 °F 32.5 °F 41.0 °F 100% 29.65 in 3.0 mi ENE 17.3 mph - 0.08 in Rain Rain
5:26 AM 41.0 °F 33.1 °F 41.0 °F 100% 29.64 in 2.5 mi ENE 15.0 mph - 0.05 in Rain Rain
5:37 AM 41.0 °F 33.1 °F 41.0 °F 100% 29.64 in 3.0 mi ENE 15.0 mph - 0.06 in Rain Rain
5:53 AM 41.0 °F 33.9 °F 41.0 °F 100% 29.65 in 3.0 mi ENE 12.7 mph - 0.09 in Rain Rain
6:26 AM 42.8 °F 35.1 °F 42.8 °F 100% 29.66 in 2.5 mi NE 16.1 mph 20.7 mph 0.04 in Rain Heavy Rain
6:41 AM 42.8 °F 35.4 °F 42.8 °F 100% 29.66 in 2.5 mi NE 15.0 mph - 0.07 in Rain Rain
6:46 AM 42.8 °F 35.1 °F 42.8 °F 100% 29.65 in 2.5 mi ENE 16.1 mph - 0.07 in Rain Rain
6:53 AM 42.1 °F 34.5 °F 42.1 °F 100% 29.65 in 2.5 mi NE 15.0 mph - 0.09 in Rain Rain
7:16 AM 42.8 °F 35.4 °F 42.8 °F 100% 29.64 in 2.5 mi NE 15.0 mph - 0.03 in Rain Light Rain
7:45 AM 42.8 °F 35.1 °F 42.8 °F 100% 29.63 in 3.0 mi NE 16.1 mph - 0.08 in Rain Light Rain
7:53 AM 42.1 °F 33.9 °F 42.1 °F 100% 29.62 in 3.0 mi NE 17.3 mph 24.2 mph 0.09 in Rain Light Rain
8:07 AM 42.8 °F 34.0 °F 42.8 °F 100% 29.61 in 2.0 mi NE 20.7 mph 27.6 mph 0.02 in Rain Rain
8:32 AM 42.8 °F 34.0 °F 42.8 °F 100% 29.60 in 3.0 mi ENE 20.7 mph 32.2 mph 0.06 in Rain Light Rain
8:44 AM 42.8 °F 34.0 °F 42.8 °F 100% 29.60 in 2.5 mi ENE 20.7 mph 27.6 mph 0.08 in Rain Light Rain
8:53 AM 42.1 °F 33.6 °F 42.1 °F 100% 29.61 in 2.5 mi ENE 18.4 mph 27.6 mph 0.10 in Rain Light Rain
9:13 AM 42.8 °F 33.8 °F 42.8 °F 100% 29.59 in 4.0 mi ENE 21.9 mph 27.6 mph 0.03 in Rain Light Rain
9:53 AM 43.0 °F 34.5 °F 43.0 °F 100% 29.57 in 7.0 mi NE 19.6 mph 26.5 mph 0.09 in Rain Light Rain
10:43 AM 42.8 °F 35.4 °F 42.8 °F 100% 29.57 in 1.8 mi NNE 15.0 mph - 0.06 in Rain Light Rain
10:53 AM 44.1 °F 37.1 °F 44.1 °F 100% 29.57 in 1.8 mi NNE 15.0 mph 21.9 mph 0.07 in Rain Light Rain
11:08 AM 44.6 °F 38.8 °F 44.6 °F 100% 29.57 in 1.8 mi North 11.5 mph 21.9 mph 0.02 in Rain Light Rain
11:36 AM 44.6 °F 39.2 °F 44.6 °F 100% 29.56 in 2.0 mi North 10.4 mph - 0.05 in Rain Light Rain
11:53 AM 44.1 °F 37.1 °F 44.1 °F 100% 29.56 in 2.5 mi North 15.0 mph - 0.07 in Rain Rain
12:00 PM 44.6 °F 38.4 °F 44.6 °F 100% 29.56 in 2.0 mi North 12.7 mph - 0.01 in   Overcast
12:19 PM 42.8 °F 35.1 °F 42.8 °F 100% 29.56 in 1.8 mi NNW 16.1 mph - 0.04 in   Overcast
12:53 PM 41.0 °F 31.4 °F 41.0 °F 100% 29.57 in 1.8 mi NNW 21.9 mph 28.8 mph 0.08 in   Overcast
12:55 PM 41.0 °F 31.6 °F 41.0 °F 100% 29.57 in 2.0 mi NNW 20.7 mph 28.8 mph N/A   Overcast
1:07 PM 41.0 °F 31.4 °F 41.0 °F 100% 29.57 in 3.0 mi NNW 21.9 mph 31.1 mph 0.01 in Rain Rain
1:19 PM 41.0 °F 31.6 °F 41.0 °F 100% 29.58 in 4.0 mi NNW 20.7 mph 28.8 mph 0.03 in Rain Rain
1:53 PM 41.0 °F 32.8 °F 41.0 °F 100% 29.57 in 5.0 mi North 16.1 mph 23.0 mph 0.07 in Rain Rain
2:13 PM 41.0 °F 31.1 °F 41.0 °F 100% 29.53 in 4.0 mi NE 23.0 mph 32.2 mph 0.02 in Rain Rain
2:24 PM 39.2 °F 29.3 °F 39.2 °F 100% 29.56 in 10.0 mi North 20.7 mph 28.8 mph 0.03 in Rain Light Rain
2:53 PM 39.9 °F 29.7 °F 39.9 °F 100% 29.59 in 10.0 mi North 23.0 mph 31.1 mph 0.07 in   Overcast
3:53 PM 39.0 °F 29.3 °F 39.0 °F 100% 29.61 in 10.0 mi North 19.6 mph 26.5 mph 0.06 in   Overcast
4:09 PM 37.4 °F 27.8 °F 37.4 °F 100% 29.62 in 10.0 mi North 17.3 mph 27.6 mph 0.01 in   Overcast
4:42 PM 37.4 °F 28.2 °F 37.4 °F 100% 29.64 in 10.0 mi North 16.1 mph 20.7 mph 0.04 in Rain Light Rain
4:53 PM 36.0 °F 26.7 °F 36.0 °F 100% 29.65 in 10.0 mi North 15.0 mph - 0.04 in   Overcast
5:12 PM 35.6 °F 25.9 °F 35.6 °F 100% 29.65 in 10.0 mi North 16.1 mph 20.7 mph 0.01 in   Overcast
5:53 PM 36.0 °F 27.5 °F 36.0 °F 100% 29.68 in 10.0 mi North 12.7 mph 21.9 mph 0.02 in   Overcast
6:26 PM 35.6 °F 28.0 °F 35.6 °F 100% 29.71 in 10.0 mi North 10.4 mph - N/A   Overcast
6:53 PM 35.1 °F 26.9 °F 35.1 °F 100% 29.71 in 5.0 mi North 11.5 mph - 0.00 in   Overcast
7:53 PM 34.0 °F 25.5 °F 34.0 °F 100% 29.76 in 7.0 mi NNW 11.5 mph - 0.00 in Snow Light Snow
8:53 PM 33.1 °F 25.5 °F 33.1 °F 100% 29.78 in 2.5 mi NNW 9.2 mph - 0.01 in Snow Light Snow
9:06 PM 33.8 °F 25.3 °F 33.8 °F 100% 29.79 in 1.5 mi NNW 11.5 mph - 0.01 in Snow Light Snow
9:53 PM 33.1 °F 23.9 °F 32.0 °F 96% 29.81 in 1.8 mi NNW 12.7 mph - 0.02 in Snow Light Snow
10:53 PM 32.0 °F 21.2 °F 32.0 °F 100% 29.82 in 1.2 mi NNW 16.1 mph 24.2 mph 0.02 in Snow Light Snow
11:53 PM 32.0 °F 22.5 °F 32.0 °F 100% 29.84 in 1.5 mi North 12.7 mph - 0.01 in Snow Light Snow